EW9828 Weather Reports


time (UTC)temp
F
wind
direction
speed
knots
gust
knots
rain 1hr
in
rain 24hr
in
rain mn
in
humidity
%
barometer
mb
20260505040013 59 11 0.0 0.0 0.00 0.00 0.00 68 1012.9
20260505034513 59 11 0.0 0.0 0.00 0.00 0.00 68 1012.9
20260505033014 59 11 0.0 0.0 0.00 0.00 0.00 70 1012.9
20260505031511 59 11 0.0 0.0 0.00 0.00 0.00 71 1012.9
20260505030011 59 11 0.0 0.0 0.00 0.00 0.00 73 1012.9
20260505024512 60 11 0.0 0.0 0.00 0.00 0.00 73 1013.0
20260505023018 61 11 0.0 0.0 0.00 0.00 0.00 72 1012.9
20260505021513 61 11 0.0 0.0 0.00 0.00 0.00 69 1012.9
20260505020008 62 11 0.0 0.0 0.00 0.00 0.00 67 1013.0
20260505014513 63 11 0.0 0.0 0.00 0.00 0.00 63 1012.8
20260505013007 64 11 0.0 0.0 0.00 0.00 0.00 61 1012.6
20260505011506 65 11 0.0 0.0 0.00 0.00 0.00 58 1012.3
20260505010006 66 11 0.0 0.0 0.00 0.00 0.00 56 1012.3
20260505004505 67 11 0.0 0.0 0.00 0.00 0.00 54 1012.2
20260505003005 68 11 0.0 0.0 0.00 0.00 0.00 53 1012.2
20260505001504 70 11 0.0 0.0 0.00 0.00 0.00 52 1012.1
20260505000007 71 11 0.0 0.0 0.00 0.00 0.00 50 1012.0
20260504234504 72 11 0.0 0.0 0.00 0.00 0.00 49 1011.9
20260504233005 73 11 0.0 0.0 0.00 0.00 0.00 48 1011.8
20260504231502 75 11 0.0 0.0 0.00 0.00 0.00 47 1011.7
20260504230106 76 11 0.0 0.0 0.00 0.00 0.00 42 1011.7
20260504230001 76 11 0.0 0.0 0.00 0.00 0.00 42 1011.7
20260504224600 76 11 0.0 0.0 0.00 0.00 0.00 42 1011.9
20260504223103 75 11 0.0 0.0 0.00 0.00 0.00 43 1011.9
20260504221604 76 11 0.0 0.0 0.00 0.00 0.00 40 1012.0
20260504220058 77 11 0.0 0.0 0.00 0.00 0.00 39 1012.0
20260504214614 78 11 0.0 0.0 0.00 0.00 0.00 38 1012.1
20260504213116 79 11 0.0 0.0 0.00 0.00 0.00 38 1012.0
20260504211557 78 12 0.0 0.0 0.00 0.00 0.00 38 1011.9
20260504210059 78 12 0.0 0.0 0.00 0.00 0.00 42 1011.8
20260504204555 78 12 0.0 0.0 0.00 0.00 0.00 39 1011.9
20260504203103 78 12 0.0 0.0 0.00 0.00 0.00 39 1012.1
20260504201606 78 11 0.0 0.0 0.00 0.00 0.00 35 1012.2
20260504200050 78 11 0.0 0.0 0.00 0.00 0.00 37 1012.3
20260504194551 79 11 0.0 0.0 0.00 0.00 0.00 35 1012.6
20260504193045 79 11 0.0 0.0 0.00 0.00 0.00 34 1012.9
20260504191554 79 11 0.0 0.0 0.00 0.00 0.00 33 1013.1
20260504190043 79 11 0.0 0.0 0.00 0.00 0.00 36 1013.4
20260504184549 78 12 0.0 0.0 0.00 0.00 0.00 35 1013.4
20260504183036 77 12 0.0 0.0 0.00 0.00 0.00 34 1013.5
20260504181537 77 12 0.0 0.0 0.00 0.00 0.00 32 1013.6
20260504180031 77 12 0.0 0.0 0.00 0.00 0.00 32 1013.8
20260504174530 77 12 0.0 0.0 0.00 0.00 0.00 34 1013.6
20260504173026 76 12 0.0 0.0 0.00 0.00 0.00 35 1014.0
20260504171522 76 12 0.0 0.0 0.00 0.00 0.00 36 1014.4
20260504081545 42 12 0.0 0.0 0.00 0.00 0.00 83 1016.3
20260504044533 44 12 0.0 0.0 0.00 0.00 0.00 80 1016.3
20260504043032 44 12 0.0 0.0 0.00 0.00 0.00 81 1016.4
20260504041530 44 12 0.0 0.0 0.00 0.00 0.00 80 1016.3
20260504040028 45 12 0.0 0.0 0.00 0.00 0.00 79 1016.3